#timestamp,LO_Frequency,Hit,StdDev 
1557043215.7,286047006.0,Y
1557043235.6,286047003.2,P
1557043255.4,286047004.0,N
1557043275.2,286047002.1,N
1557043295.1,286047006.0,Y
1557043296.0,286047006.0,P
1557043315.8,286047002.1,N
1557043335.6,286047003.2,N
1557043355.4,286047001.9,N
1557043375.3,286046998.1,N
1557043395.1,286046998.1,N
1557043415.8,286046998.9,N
1557043435.7,286046999.4,N
1557043455.5,286046999.2,N
1557043475.3,286046997.1,N
1557043495.2,286046998.8,N
1557043515.9,286047000.3,N
1557043535.7,286047001.5,N
1557043555.6,286047003.8,N
1557043575.4,286047002.8,N
1557043595.2,286047000.5,N
1557043615.0,286047000.6,N
1557043615.9,286047000.6,N
1557043635.8,286046999.6,N
1557043655.6,286046997.4,N
1557043675.4,286046998.0,N
1557043695.3,286046995.3,N
1557043715.1,286046993.6,N
1557043735.8,286046993.9,N
1557043755.7,286046997.3,N
1557043775.5,286047005.9,N
1557043795.3,286047003.5,N
1557043815.2,286047005.1,N
1557043835.9,286047005.2,N
1557043855.7,286047005.4,N
1557043875.5,286047001.7,N
1557043895.4,286047000.0,N
1557043915.2,286046998.8,N
1557043935.0,286046997.9,N
1557043935.9,286046997.9,N
1557043955.8,286046995.7,N
1557043975.6,286046994.3,N
1557043995.4,286046995.7,N
1557044015.3,286046996.2,N
1557044035.1,286046995.9,N
1557044036.0,286046995.9,N
1557044055.8,286046993.9,N
1557044075.7,286046993.1,N
1557044095.5,286046992.8,N
1557044115.3,286046994.7,N
1557044135.2,286046993.7,N
1557044155.9,286046994.3,N
1557044175.7,286046993.7,N
1557044195.5,286046998.0,N
1557044215.4,286046995.8,N
1557044235.2,286046995.5,N
1557044255.0,286046996.2,N
1557044255.9,286046996.2,N
1557044275.8,286046996.4,N
1557044295.6,286046994.7,N
1557044315.4,286046999.3,N
1557044335.3,286046997.3,N
1557044355.1,286046994.2,N
1557044375.8,286046991.8,N
1557044395.7,286047001.0,N
1557044415.5,286046998.8,N
1557044435.3,286046997.4,N
1557044455.2,286046993.5,Y
1557044475.9,286046999.0,P
1557044495.7,286046995.5,N
1557044515.6,286046995.8,N
1557044535.4,286046995.8,N
1557044555.2,286046996.2,N
1557044575.1,286046994.0,Y
1557044576.0,286046994.0,P
1557044595.8,286046995.6,P
1557044615.6,286046993.7,P
1557044635.5,286046992.2,Y
1557044655.3,286046997.1,P
1557044675.1,286046996.7,P
1557044695.9,286046995.2,P
1557044715.7,286046995.0,Y
1557044735.5,286047000.4,P
1557044755.4,286046998.6,N
1557044775.2,286046998.9,N
1557044795.0,286046996.8,N
1557044795.9,286046996.8,N
1557044815.7,286047000.8,N
1557044835.6,286047001.5,N
1557044855.4,286046999.7,N
1557044875.2,286047000.8,N
1557044895.1,286046998.5,N
1557044896.0,286046998.5,N
1557044915.8,286047000.9,N
1557044935.6,286047002.7,N
1557044955.5,286046998.6,N
1557044975.3,286046999.2,N
1557044995.1,286047002.8,N
1557045015.9,286047000.1,N
1557045035.7,286047001.6,N
1557045055.5,286047004.2,N
1557045075.3,286047004.8,N
1557045095.2,286047006.2,N
1557045115.0,286047005.9,N
1557045115.9,286047005.9,N
1557045135.7,286047002.6,N
1557045155.6,286047000.1,N
1557045175.4,286046998.9,N
1557045195.2,286046996.8,N
1557045215.1,286046995.4,N
1557045216.0,286046995.4,N
1557045235.8,286046993.5,N
1557045255.6,286046992.4,N
1557045275.5,286046992.6,N
1557045295.3,286046991.1,N
1557045315.1,286046989.6,N
1557045335.8,286046987.3,N
1557045355.7,286046986.0,N
1557045375.5,286046983.9,Y
1557045395.3,286046988.3,P
1557045415.2,286046985.6,N
1557045435.0,286046985.6,N
1557045435.9,286046985.6,N
1557045455.7,286046985.3,N
1557045475.6,286046983.9,Y
1557045495.4,286046998.8,P
1557045515.2,286046996.6,N
1557045535.1,286046995.1,N
1557045536.0,286046995.1,N
1557045555.8,286046995.1,N
1557045575.6,286046995.0,N
1557045595.5,286046996.1,N
1557045615.3,286046997.4,N
1557045635.1,286046997.6,N
1557045655.9,286046996.8,N
1557045675.7,286047000.0,N
1557045695.5,286047000.9,N
1557045715.4,286046999.2,N
1557045735.2,286047001.0,N
1557045755.0,286046998.8,N
1557045755.9,286046998.8,N
1557045775.7,286046996.6,N
1557045795.6,286046996.6,N
1557045815.4,286046995.9,N
1557045835.2,286046994.6,N
1557045855.1,286046992.0,N
1557045856.0,286046992.0,N
1557045875.8,286046990.7,Y
1557045895.6,286046996.4,P
1557045915.5,286046994.8,P
1557045935.3,286046999.1,N
1557045955.1,286046999.2,N
1557045975.9,286046997.7,N
1557045995.7,286046996.1,N
1557046015.5,286046996.0,N
1557046035.4,286046995.8,N
1557046055.2,286046993.8,Y
1557046075.0,286046997.7,P
1557046075.9,286046997.7,P
1557046095.8,286046995.7,P
1557046115.6,286046993.5,Y
1557046135.4,286046995.5,P
1557046155.3,286046997.3,P
1557046175.1,286046998.3,N
1557046176.0,286046998.3,N
1557046195.8,286046999.0,N
1557046215.6,286046999.2,N
1557046235.5,286046997.1,N
1557046255.3,286046995.3,Y
1557046275.1,286046996.9,P
1557046295.9,286046997.5,P
1557046315.7,286046995.2,P
1557046335.5,286047001.0,N
1557046355.4,286046999.0,N
1557046375.2,286046999.1,N
1557046395.0,286046999.4,N
1557046395.9,286046999.4,N
1557046415.8,286046997.0,N
1557046435.6,286046997.6,N
1557046455.4,286046997.2,N
1557046475.3,286046994.9,Y
1557046495.1,286046997.5,P
1557046496.0,286046997.5,P
1557046515.8,286046999.5,N
1557046535.7,286046997.6,N
1557046555.5,286046995.4,Y
1557046575.3,286046998.0,P
1557046595.2,286046995.7,P
1557046615.9,286046996.7,P
1557046635.7,286046997.0,Y
1557046655.6,286047001.2,P
1557046675.4,286046999.0,N
1557046695.2,286046998.9,N
1557046715.1,286046997.7,N
1557046716.0,286046997.7,N
1557046735.8,286046995.6,Y
1557046755.6,286046995.7,P
1557046775.5,286046996.4,N
1557046795.3,286047001.2,N
